Date_and_time,latitude,longitude,wind_speed,RelWindDirFrom,WindDirFrom,air_pressure,air_temperature,relative_humidity,Temp,platform_speed_wrt_ground,air_pressure_at_mean_sea_level,platform_orientation
2018-04-30 23:50,50.6304333333333,-96.9807533333333,14.9,19.8,344,979.87,2.9,91,4.71,0.0,1007.16,165.5
2018-05-01 00:00,50.630435,-96.980755,12.6,20.1,341,980.18,3.0,91,4.71,0.0,1007.49,323.4
2018-05-01 00:10,50.6304216666667,-96.980755,15.7,22.7,342,980.03,3.0,90,4.72,0.0,1007.35,323.4
2018-05-01 00:20,50.63044,-96.9807516666667,15.8,23.6,346,980.07,3.0,89,4.73,0.0,1007.40,323.4
2018-05-01 00:30,50.630425,-96.9807616666667,14.3,20.3,339,980.29,3.1,87,4.72,0.0,1007.62,323.4
2018-05-01 00:40,50.6304283333333,-96.980755,16.9,23.9,346,980.34,3.1,87,4.72,0.0,1007.68,323.4
2018-05-01 00:50,50.6304283333333,-96.9807533333333,16.6,24.4,348,980.52,2.8,88,4.72,0.0,1007.88,323.4
2018-05-01 01:00,50.6304316666667,-96.9807583333333,16.3,23.1,348,980.85,2.8,88,4.72,0.0,1008.22,270.0
2018-05-01 01:10,50.630435,-96.9807633333333,16.2,22.3,346,981.16,2.7,88,4.73,0.0,1008.55,270.0
2018-05-01 01:20,50.63044,-96.9807666666667,15.9,22.2,351,981.17,2.6,89,4.71,0.0,1008.56,270.0
2018-05-01 01:30,50.6304416666667,-96.9807716666667,15.7,22.5,354,981.09,2.4,90,4.69,0.0,1008.48,270.0
2018-05-01 01:40,50.6304366666667,-96.98077,16.1,22.1,354,981.07,2.3,91,4.70,0.0,1008.48,270.0
2018-05-01 01:50,50.63044,-96.98077,15.7,21.5,354,981.29,2.2,91,4.72,0.0,1008.71,270.0
2018-05-01 02:00,50.6304416666667,-96.9807666666667,13.7,20.9,354,981.43,2.1,93,4.69,0.0,1008.85,332.8
2018-05-01 02:10,50.6304283333333,-96.98077,14.1,20.7,352,981.57,2.1,93,4.66,0.0,1009.00,332.8
2018-05-01 02:20,50.6304333333333,-96.9807583333333,14.1,21.1,353,981.61,2.1,94,4.64,0.0,1009.04,332.8
2018-05-01 02:30,50.6304383333333,-96.980765,16.5,21.7,351,981.57,2.1,94,4.60,0.0,1008.99,332.8
2018-05-01 02:40,50.6304416666667,-96.98077,14.5,19.7,353,981.74,2.1,95,4.58,0.0,1009.18,332.8
2018-05-01 02:50,50.63044,-96.9807666666667,11.6,16.5,338,981.91,1.9,98,4.54,0.0,1009.36,332.8
2018-05-01 03:00,50.6304366666667,-96.98076,12.0,17.1,339,981.94,1.7,99,4.52,0.0,1009.42,0.0
2018-05-01 03:10,50.6304466666667,-96.9807733333333,11.7,16.6,339,982.03,1.4,100,4.50,0.0,1009.53,0.0
2018-05-01 03:20,50.63043,-96.980705,12.1,16.4,344,981.92,1.3,100,4.48,0.0,1009.42,0.0
2018-05-01 03:30,50.6304316666667,-96.980755,12.6,17.2,349,981.77,1.3,100,4.45,0.0,1009.28,0.0
2018-05-01 03:40,50.6304316666667,-96.9807633333333,15.2,21.1,356,981.64,1.3,100,4.40,0.0,1009.14,0.0
2018-05-01 03:50,50.6304283333333,-96.9807633333333,15.8,22.4,360,981.47,1.3,100,4.33,0.0,1008.98,0.0
2018-05-01 04:00,50.6304283333333,-96.9807633333333,17.6,22.9,1,981.46,1.2,100,4.27,0.0,1008.98,192.6
2018-05-01 04:10,50.6304083333333,-96.9807783333333,17.4,22.8,358,981.43,1.0,100,4.22,0.0,1008.96,192.6
2018-05-01 04:20,50.6304233333333,-96.9807666666667,17.1,21.2,358,981.63,1.0,100,4.19,0.0,1009.16,192.6
2018-05-01 04:30,50.630425,-96.9807666666667,18.2,23.4,359,981.57,1.0,100,4.20,0.0,1009.10,192.6
2018-05-01 04:40,50.630435,-96.9807566666667,19.1,23.7,356,981.37,1.0,100,4.23,0.0,1008.91,192.6
2018-05-01 04:50,50.6304316666667,-96.9807633333333,18.6,24.9,358,981.37,1.0,100,4.27,0.0,1008.91,192.6
2018-05-01 05:00,50.6304333333333,-96.9807616666667,18.6,24.1,359,981.24,1.0,100,4.29,0.0,1008.79,138.7
2018-05-01 05:10,50.630435,-96.980765,18.8,23.8,358,980.87,1.0,99,4.28,0.0,1008.42,138.7
2018-05-01 05:20,50.630435,-96.980765,18.3,22.7,3,980.59,1.0,99,4.28,0.0,1008.14,138.7
2018-05-01 05:30,50.6304433333333,-96.9807566666667,18.3,23.3,5,980.46,0.9,100,4.28,0.0,1008.00,138.7
2018-05-01 05:40,50.6304383333333,-96.9807516666667,17.2,21.9,6,980.58,0.8,100,4.28,0.0,1008.13,138.7
2018-05-01 05:50,50.6304383333333,-96.98076,15.5,19.1,8,980.90,0.8,100,4.29,0.0,1008.47,138.7
2018-05-01 06:00,50.6304316666667,-96.98076,14.0,17.7,7,981.14,0.7,100,4.29,0.0,1008.72,142.0
2018-05-01 06:10,50.630435,-96.9807616666667,12.5,15.8,5,981.53,0.7,100,4.27,0.0,1009.13,142.0
2018-05-01 06:20,50.6304333333333,-96.9807633333333,10.6,14.4,4,981.87,0.7,100,4.26,0.0,1009.47,142.0
2018-05-01 06:30,50.63043,-96.9807583333333,10.9,14.3,1,981.90,0.8,100,4.26,0.0,1009.50,142.0
2018-05-01 06:40,50.6304283333333,-96.98076,11.5,14.7,356,981.54,0.8,100,4.26,0.0,1009.14,142.0
2018-05-01 06:50,50.6304333333333,-96.9807616666667,11.9,16.0,355,981.45,0.8,100,4.25,0.0,1009.04,142.0
2018-05-01 07:00,50.6304333333333,-96.9807616666667,12.7,16.1,356,981.35,0.9,100,4.24,0.0,1008.93,12.6
2018-05-01 07:10,50.6304366666667,-96.9807616666667,12.5,16.0,356,981.32,0.9,99,4.23,0.0,1008.90,12.6
2018-05-01 07:20,50.630435,-96.98077,12.0,15.8,354,981.59,0.9,99,4.20,0.0,1009.18,12.6
2018-05-01 07:30,50.6304283333333,-96.98076,11.6,15.5,350,981.64,1.0,99,4.20,0.0,1009.24,12.6
2018-05-01 07:40,50.63043,-96.98076,12.1,16.3,350,981.44,1.1,99,4.18,0.0,1009.03,12.6
2018-05-01 07:50,50.63043,-96.98076,11.7,16.2,350,981.29,1.1,99,4.15,0.0,1008.87,12.6
2018-05-01 08:00,50.63043,-96.9807616666667,12.3,16.4,349,981.17,1.1,99,4.13,0.0,1008.75,360.0
2018-05-01 08:10,50.63043,-96.98076,12.9,17.3,348,981.06,1.1,99,4.12,0.0,1008.63,360.0
2018-05-01 08:20,50.6304183333333,-96.980755,12.8,16.6,348,980.93,1.1,99,4.10,0.0,1008.50,360.0
2018-05-01 08:30,50.630425,-96.980755,12.0,17.6,352,980.86,1.1,99,4.08,0.0,1008.43,360.0
2018-05-01 08:40,50.6304266666667,-96.9807583333333,12.4,16.7,354,980.84,1.1,99,4.08,0.0,1008.41,360.0
2018-05-01 08:50,50.6304283333333,-96.9807583333333,14.7,19.0,355,980.74,1.1,99,4.06,0.0,1008.30,360.0
2018-05-01 09:00,50.6304283333333,-96.9807633333333,15.1,20.1,357,980.59,1.1,99,4.05,0.0,1008.15,192.6
2018-05-01 09:10,50.6304333333333,-96.9807583333333,14.3,21.1,353,980.61,1.1,99,4.01,0.0,1008.17,192.6
2018-05-01 09:20,50.6304316666667,-96.9807566666667,12.2,17.6,354,980.97,1.1,99,3.98,0.0,1008.53,192.6
2018-05-01 09:30,50.6304333333333,-96.9807566666667,12.9,18.5,357,981.02,1.0,99,3.96,0.0,1008.58,192.6
2018-05-01 09:40,50.6304316666667,-96.9807583333333,11.9,16.5,355,981.11,1.0,99,3.97,0.0,1008.67,192.6
2018-05-01 09:50,50.6304333333333,-96.9807566666667,10.9,14.6,354,981.37,1.1,99,3.97,0.0,1008.94,192.6
2018-05-01 10:00,50.6304333333333,-96.980755,12.2,18.7,357,981.38,1.0,99,3.96,0.0,1008.95,0.0
2018-05-01 10:10,50.6304316666667,-96.980755,13.4,18.2,356,981.12,1.0,99,3.96,0.0,1008.68,0.0
2018-05-01 10:20,50.6304316666667,-96.9807566666667,14.1,20.5,355,980.98,1.0,99,3.94,0.0,1008.54,0.0
2018-05-01 10:30,50.6304333333333,-96.980755,13.7,19.0,356,981.10,1.0,99,3.91,0.0,1008.67,0.0
2018-05-01 10:40,50.6304333333333,-96.9807566666667,14.5,18.2,358,981.12,0.9,99,3.87,0.0,1008.69,0.0
2018-05-01 10:50,50.6304333333333,-96.980755,14.8,19.0,359,980.93,0.9,99,3.89,0.0,1008.50,0.0
2018-05-01 11:00,50.6304333333333,-96.980755,14.4,18.2,358,981.13,0.8,99,3.89,0.0,1008.71,360.0
2018-05-01 11:10,50.630455,-96.98076,14.3,18.2,359,981.08,0.8,99,3.88,0.0,1008.66,360.0
2018-05-01 11:20,50.6304416666667,-96.9807516666667,13.8,18.3,358,981.06,0.8,99,3.89,0.0,1008.64,360.0
2018-05-01 11:30,50.6304383333333,-96.9807533333333,12.4,16.2,356,981.40,0.8,99,3.87,0.0,1008.99,360.0
2018-05-01 11:40,50.6304366666667,-96.9807516666667,12.8,15.9,357,981.33,0.8,99,3.87,0.0,1008.91,360.0
2018-05-01 11:50,50.6304383333333,-96.9807533333333,13.2,16.3,356,981.28,0.8,99,3.87,0.0,1008.86,360.0
2018-05-01 12:00,50.6304383333333,-96.9807533333333,12.8,17.6,356,981.30,0.8,99,3.86,0.0,1008.88,3.2
2018-05-01 12:10,50.6304383333333,-96.980755,13.1,17.2,358,981.38,0.7,99,3.85,0.0,1008.97,3.2
2018-05-01 12:20,50.6304366666667,-96.980755,12.9,16.6,357,981.38,0.7,99,3.84,0.0,1008.97,3.2
2018-05-01 12:30,50.6304366666667,-96.980755,13.1,17.3,359,981.40,0.6,100,3.81,0.0,1009.00,3.2
2018-05-01 12:40,50.630435,-96.9807533333333,12.3,15.5,360,981.60,0.6,100,3.79,0.0,1009.21,3.2
2018-05-01 12:50,50.6304333333333,-96.980755,11.3,14.2,3,981.71,0.5,100,3.79,0.0,1009.33,3.2
2018-05-01 13:00,50.6304183333333,-96.9807583333333,11.0,14.0,4,981.75,0.6,100,3.81,0.0,1009.37,360.0
2018-05-01 13:10,50.6304233333333,-96.9807616666667,12.2,16.7,3,981.81,0.7,100,3.83,0.0,1009.42,360.0
2018-05-01 13:20,50.6304283333333,-96.9807566666667,10.6,14.0,0,982.02,0.7,100,3.84,0.0,1009.64,360.0
2018-05-01 13:30,50.63043,-96.9807566666667,10.8,14.4,358,982.05,0.7,100,3.83,0.0,1009.67,360.0
2018-05-01 13:40,50.63043,-96.9807616666667,10.6,14.2,355,982.08,0.7,100,3.83,0.0,1009.70,360.0
2018-05-01 13:50,50.6304416666667,-96.98076,11.1,14.5,358,981.95,0.8,100,3.84,0.0,1009.57,360.0
2018-05-01 14:00,50.6304366666667,-96.9807633333333,12.4,17.6,358,981.81,0.9,100,3.83,0.0,1009.43,311.7
2018-05-01 14:10,50.6304316666667,-96.980765,12.6,16.1,1,981.82,0.8,100,3.83,0.0,1009.43,311.7
2018-05-01 14:20,50.63043,-96.980765,12.0,16.6,1,981.79,0.7,100,3.84,0.0,1009.41,311.7
2018-05-01 14:30,50.63043,-96.9807666666667,11.0,14.1,359,981.87,0.7,100,3.83,0.0,1009.50,311.7
2018-05-01 14:40,50.63043,-96.9807666666667,11.7,15.7,358,981.83,0.8,100,3.82,0.0,1009.46,311.7
2018-05-01 14:50,50.63043,-96.9807666666667,11.5,16.6,358,981.84,0.8,100,3.82,0.0,1009.47,311.7
2018-05-01 15:00,50.63043,-96.9807666666667,12.2,15.8,354,982.00,0.9,100,3.82,0.0,1009.62,183.2
2018-05-01 15:10,50.6304266666667,-96.9807816666667,11.7,14.7,354,982.18,0.9,100,3.84,0.0,1009.80,183.2
2018-05-01 15:20,50.63042,-96.9807616666667,10.6,15.0,349,982.36,1.0,100,3.86,0.0,1009.98,183.2
2018-05-01 15:30,50.6304233333333,-96.9807633333333,11.1,15.0,351,982.50,1.2,99,3.86,0.0,1010.12,183.2
2018-05-01 15:40,50.6304233333333,-96.9807666666667,11.5,15.5,356,982.46,1.3,99,3.86,0.0,1010.06,183.2
2018-05-01 15:50,50.6304066666667,-96.9807666666667,10.5,14.0,357,982.61,1.4,99,3.86,0.0,1010.21,183.2
2018-05-01 16:00,50.6304133333333,-96.98072,9.8,13.0,356,982.79,1.5,99,3.87,0.0,1010.39,90.0
2018-05-01 16:10,50.6304333333333,-96.9807366666667,10.3,13.8,0,982.74,1.5,99,3.88,0.0,1010.34,90.0
2018-05-01 16:20,50.6304233333333,-96.9807633333333,10.8,13.0,3,982.69,1.5,99,3.89,0.0,1010.29,90.0
2018-05-01 16:30,50.6304216666667,-96.980765,11.2,14.1,2,982.68,1.6,99,3.89,0.0,1010.28,90.0
2018-05-01 16:40,50.6304216666667,-96.9807633333333,10.8,13.5,6,982.82,1.6,99,3.90,0.0,1010.42,90.0
2018-05-01 16:50,50.6304216666667,-96.9807633333333,9.8,12.6,8,982.87,1.5,99,3.91,0.0,1010.47,90.0
2018-05-01 17:00,50.6304216666667,-96.9807633333333,10.5,13.2,8,982.87,1.5,99,3.93,0.0,1010.47,161.1
2018-05-01 17:10,50.6304216666667,-96.9807633333333,10.9,13.6,6,982.91,1.5,99,3.93,0.0,1010.50,161.1
2018-05-01 17:20,50.6304333333333,-96.9807633333333,11.5,13.9,6,982.98,1.5,99,3.94,0.0,1010.56,161.1
2018-05-01 17:30,50.6304233333333,-96.9807683333333,10.8,13.9,6,983.06,1.5,99,3.94,0.0,1010.65,161.1
2018-05-01 17:40,50.6304233333333,-96.9807716666667,10.9,14.4,4,983.15,1.6,99,3.95,0.0,1010.73,161.1
2018-05-01 17:50,50.6304166666667,-96.98077,10.9,14.1,9,983.26,1.6,99,3.96,0.0,1010.83,161.1
2018-05-01 18:00,50.6304266666667,-96.9807683333333,11.0,12.9,10,983.39,1.6,99,3.97,0.0,1010.98,0.0
2018-05-01 18:10,50.63043,-96.9807533333333,10.2,12.5,8,983.55,1.6,99,3.98,0.0,1011.13,0.0
2018-05-01 18:20,50.63043,-96.9807616666667,9.6,11.5,12,983.70,1.7,99,3.99,0.0,1011.28,0.0
2018-05-01 18:30,50.6304283333333,-96.980765,9.3,11.2,16,983.72,1.6,99,4.00,0.0,1011.30,0.0
2018-05-01 18:40,50.6304283333333,-96.980765,9.2,11.1,22,983.67,1.5,99,4.01,0.0,1011.26,0.0
2018-05-01 18:50,50.6304266666667,-96.9807633333333,8.8,10.1,19,983.67,1.5,99,4.00,0.0,1011.26,0.0
2018-05-01 19:00,50.630425,-96.980735,8.8,10.0,21,983.68,1.5,99,4.01,0.0,1011.27,323.4
2018-05-01 19:10,50.6304233333333,-96.9807466666667,7.3,8.5,20,983.84,1.5,99,4.01,0.0,1011.44,323.4
2018-05-01 19:20,50.6304233333333,-96.9807566666667,6.6,7.8,20,983.90,1.4,99,4.02,0.0,1011.50,323.4
2018-05-01 19:30,50.630425,-96.98076,7.5,8.3,20,983.89,1.4,99,4.04,0.0,1011.49,323.4
2018-05-01 19:40,50.6304233333333,-96.9807616666667,6.9,7.9,28,983.94,1.4,99,4.05,0.0,1011.54,323.4
2018-05-01 19:50,50.630425,-96.980765,6.4,7.1,31,983.99,1.5,99,4.05,0.0,1011.59,323.4
2018-05-01 20:00,50.630425,-96.9807633333333,6.4,7.3,31,984.02,1.5,99,4.05,0.0,1011.61,360.0
2018-05-01 20:10,50.630425,-96.9807633333333,6.1,6.9,25,984.05,1.5,99,4.05,0.0,1011.64,360.0
2018-05-01 20:20,50.6304266666667,-96.9807616666667,6.3,6.9,19,984.10,1.5,99,4.06,0.0,1011.70,360.0
2018-05-01 20:30,50.630435,-96.980745,5.9,6.5,18,984.28,1.5,99,4.06,0.0,1011.89,360.0
2018-05-01 20:40,50.6304366666667,-96.9807533333333,5.7,6.5,19,984.42,1.7,99,4.07,0.0,1012.03,360.0
2018-05-01 20:50,50.6304283333333,-96.9807483333333,5.6,6.1,22,984.37,1.8,99,4.08,0.0,1011.96,360.0
2018-05-01 21:00,50.63043,-96.9807533333333,6.1,6.7,22,984.28,1.8,99,4.08,0.0,1011.87,90.0
2018-05-01 21:10,50.630435,-96.9807566666667,6.0,6.7,21,984.26,1.6,99,4.08,0.0,1011.87,90.0
2018-05-01 21:20,50.6304333333333,-96.9807566666667,5.5,6.2,17,984.35,1.6,99,4.08,0.0,1011.96,90.0
2018-05-01 21:30,50.630435,-96.9807566666667,4.7,5.2,15,984.47,1.7,99,4.07,0.0,1012.07,90.0
2018-05-01 21:40,50.6304366666667,-96.9807583333333,4.0,4.9,20,984.54,1.9,98,4.06,0.0,1012.13,90.0
2018-05-01 21:50,50.6304383333333,-96.9807583333333,3.2,3.5,27,984.62,2.3,93,4.06,0.0,1012.20,90.0
2018-05-01 22:00,50.63044,-96.9807583333333,3.1,3.4,27,984.59,2.4,90,4.07,0.0,1012.16,318.8
2018-05-01 22:10,50.630445,-96.9807616666667,2.6,3.0,20,984.62,2.4,90,4.09,0.0,1012.20,318.8
2018-05-01 22:20,50.630425,-96.9807466666667,2.4,2.6,27,984.73,2.5,89,4.10,0.0,1012.30,318.8
2018-05-01 22:30,50.6304,-96.98076,2.2,2.5,30,984.85,2.6,88,4.11,0.0,1012.41,318.8
2018-05-01 22:40,50.63043,-96.9807716666667,2.3,2.6,32,984.88,2.8,86,4.12,0.0,1012.42,318.8
2018-05-01 22:50,50.6304333333333,-96.9807733333333,2.7,3.1,30,984.81,2.7,86,4.13,0.0,1012.35,318.8
2018-05-01 23:00,50.630425,-96.980745,2.4,2.8,33,984.83,2.7,86,4.14,0.0,1012.39,90.0
2018-05-01 23:10,50.630435,-96.9807583333333,3.0,3.5,23,984.82,2.6,86,4.15,0.0,1012.38,90.0
2018-05-01 23:20,50.630435,-96.98076,4.0,4.6,25,984.76,2.5,87,4.15,0.0,1012.32,90.0
2018-05-01 23:30,50.6304333333333,-96.98076,4.8,5.3,22,984.72,2.6,86,4.16,0.0,1012.26,90.0
